Regional Weather Roundup
Issued by NWS

Home | Current Version | Previous Version | Graphics & Text | Print | Product List | Glossary On
Versions: 1 2 3 4 5 6 7 8 9 10 11 12 13 14 15 16 17 18 19 20 21 22 23 24 25 26 27 28 29 30 31 32 33 34 35 36 37 38 39 40 41 42 43 44 45 46 47 48 49 50
000
ASUS43 KIND 281859
RWRIN

WEATHER ROUNDUP FOR INDIANA
NATIONAL WEATHER SERVICE INDIANAPOLIS IN
300 PM EDT SUN AUG 28 2016

NOTE: "FAIR" INDICATES FEW OR NO CLOUDS BELOW 12,000 FEET WITH NO
SIGNIFICANT WEATHER AND/OR OBSTRUCTIONS TO VISIBILITY.

* - STATION DOES NOT REPORT WEATHER SUCH AS PRECIPITATION OR FOG.

+ - STATION NOT QUALITY CONTROLLED BY THE NATIONAL WEATHER SERVICE.
    USE DATA WITH CAUTION...ESPECIALLY DEWPOINT AND RELATIVE
    HUMIDITY OBSERVATIONS.

INZ001>003-010>013-019-020-282000-
NORTHWEST INDIANA

CITY           SKY/WX    TMP DP  RH WIND       PRES   REMARKS
GARY /AIRPORT/ PTSUNNY   79  70  73 NE12      30.20S
KNOX *+        CLOUDY    75  50  41 N10       30.19R
MONTICELLO +   MOSUNNY   87  69  54 S5        30.17F

$$

LMZ046-743>745-282000-
SOUTHERN LAKE MICHIGAN

STATION/POSITION TIME  TEMP    WIND        PRES    WAVE
                       AIR SEA DIR/SP/G            HT
                 (UTC) (F)     (DEG/KT/KT) (MB)    (FT)
BURNS HARBOR     1820   76      40/ 12/ 15 1022.7F
MICHIGAN CITY    1800   74      10/ 15/ 16   N/A
5NW MICH CITY    1800   76 77   30/ 12/ 14   N/A     2

$$

INZ004-005-014>016-021>024-282000-
NORTH CENTRAL INDIANA

CITY           SKY/WX    TMP DP  RH WIND       PRES   REMARKS
ELKHART        TSTM      73  68  83 S6        30.20S
GOSHEN         PTSUNNY   78  65  63 N8G18     30.19S
SOUTH BEND     CLOUDY    81  71  71 CALM      30.20R

$$

INZ006>009-017-018-025>027-282000-
NORTHEAST INDIANA

CITY           SKY/WX    TMP DP  RH WIND       PRES   REMARKS
ANGOLA *+      MOSUNNY   84  73  70 VRB3      30.19F
FORT WAYNE     PTSUNNY   89  71  55 SW7       30.19F HX  95

$$

INZ028-029-035-036-043>045-051>053-282000-
WEST CENTRAL INDIANA

CITY           SKY/WX    TMP DP  RH WIND       PRES   REMARKS
CRAWFORDSVL +  SUNNY     86  73  64 SE3       30.18F
LAFAYETTE      CLOUDY    88  73  61 S3        30.15F HX  95
TERRE HAUTE    SUNNY     91  73  55 SE6       30.16F HX  99

$$

INZ030>032-037>040-046>048-054>057-064-065-282000-
CENTRAL INDIANA

CITY           SKY/WX    TMP DP  RH WIND       PRES   REMARKS
COLUMBUS       MOSUNNY   88  77  70 SE6       30.18F HX 100
INDIANAPOLIS   PTSUNNY   88  73  61 S3        30.18F HX  95
-EAGLE CREEK   SUNNY     88  70  55 CALM      30.17F
KOKOMO *+      MOSUNNY   84  73  70 CALM      30.18F
MT COMFORT *+  PTSUNNY   86  73  66 CALM      30.19F
SHELBYVILLE    MOSUNNY   89  72  56 VRB6      30.17F HX  96

$$

INZ033-034-041-042-049-050-058-059-282000-
EAST CENTRAL INDIANA

CITY           SKY/WX    TMP DP  RH WIND       PRES   REMARKS
MUNCIE         PTSUNNY   86  73  65 NE3       30.19F

$$

INZ060-061-067>069-081>083-085>088-282000-
SOUTHWEST INDIANA

CITY           SKY/WX    TMP DP  RH WIND       PRES   REMARKS
EVANSVILLE     PTSUNNY   90  72  55 E3        30.15F HX  97
HUNTINGBURG *+ MOSUNNY   91  73  55 CALM      30.16F HX 100

$$

INZ062-063-066-070>080-084-089>092-282000-
SOUTH CENTRAL AND SOUTHEAST INDIANA

CITY           SKY/WX    TMP DP  RH WIND       PRES   REMARKS
BLOOMINGTON    MOSUNNY   90  73  57 SW3       30.18F HX  98
MADISON *+     SUNNY     88  72  58 CALM      30.20F

$$




USA.gov is the U.S. government's official web portal to all federal, state and local government web resources and services.